Stations météo

réclame
Mon MeteoGroup
Pembrey Sands, Grande-Bretagne (3605): Température de l'air & dewpoint: 18.10.2018 06:00:00 - 24.10.2018 06:00:00 (BST)Pembrey Sands, Grande-Bretagne (3605): Vitesse du vent & gusts: 18.10.2018 06:00:00 - 24.10.2018 06:00:00 (BST)Pembrey Sands, Grande-Bretagne (3605): Direction du vent: 18.10.2018 06:00:00 - 24.10.2018 06:00:00 (BST)Pembrey Sands, Grande-Bretagne (3605): reduced air pressure: 18.10.2018 06:00:00 - 24.10.2018 06:00:00 (BST)Pembrey Sands, Grande-Bretagne (3605): visibility: 18.10.2018 06:00:00 - 24.10.2018 06:00:00 (BST)Pembrey Sands, Grande-Bretagne (3605): Quantités de précipitations: 18.10.2018 06:00:00 - 24.10.2018 06:00:00 (BST)
Date & Time tt [°C] td [°C] ff [km/h] ff [knt] fx [km/h] fx [knt] dd ppp [hPa] vv [km] rr [mm]
24.10.2018 06:00:00 - - - - - - - - - 0,0
24.10.2018 05:00:00 9,2 8,8 16 9 - - NNE 1032,2 13 0,0
24.10.2018 04:00:00 6,8 6,5 11 6 - - NNE 1032,4 6 0,0
24.10.2018 03:00:00 5,0 4,6 8 4 - - NNE 1033,2 8 0,0
24.10.2018 02:00:00 3,0 2,4 9 5 - - NNE 1033,6 7 0,0
24.10.2018 01:00:00 3,2 2,4 8 4 - - NE 1033,8 6 0,0
24.10.2018 00:00:00 4,1 3,1 5 3 - - NNE 1033,8 12 0,0
23.10.2018 23:00:00 5,4 4,3 5 3 - - NE 1034,2 4,2 0,0
23.10.2018 22:00:00 7,2 5,7 5 3 - - N 1034,2 12 0,0
23.10.2018 21:00:00 10,2 8,2 11 6 - - WNW 1034,2 17 0,0
23.10.2018 20:00:00 11,4 9,5 15 8 - - WNW 1034,3 16 0,0
23.10.2018 19:00:00 11,8 9,4 13 7 - - WNW 1034,1 16 0,0
23.10.2018 18:00:00 12,0 8,9 8 4 - - NNE 1033,5 20 0,0
23.10.2018 17:00:00 12,9 9,3 29 16 - - NNW 1033,2 22 0,0
23.10.2018 16:00:00 13,8 9,0 22 12 - - NNW 1032,9 24 0,0
23.10.2018 15:00:00 14,8 9,2 18 10 - - NNW 1033,2 26 0,0
23.10.2018 14:00:00 13,9 8,7 26 14 - - NNW 1033,4 27 0,0
23.10.2018 13:00:00 13,9 9,3 29 16 - - NW 1034,2 27 0,0
23.10.2018 12:00:00 12,5 9,9 18 10 - - NW 1035,0 23 0,0
23.10.2018 11:00:00 10,9 9,0 5 3 - - WNW 1035,7 24 0,0
23.10.2018 10:00:00 10,1 9,4 5 3 - - NW 1035,6 24 0,0
23.10.2018 09:00:00 6,2 5,5 8 4 - - NE 1035,8 19 0,0
23.10.2018 08:00:00 7,2 6,2 8 4 - - NW 1035,8 18 0,0
23.10.2018 07:00:00 8,9 7,6 18 10 - - WNW 1036,0 17 0,0
23.10.2018 06:00:00 9,3 8,7 21 11 - - WNW 1036,2 15 0,0
23.10.2018 05:00:00 4,6 4,2 9 5 - - NW 1036,6 18 0,0
23.10.2018 04:00:00 3,7 3,1 5 3 - - N 1037,2 15 0,0
23.10.2018 03:00:00 2,7 2,1 9 5 - - NE 1037,6 10 0,0
23.10.2018 02:00:00 4,0 3,3 5 3 - - NNW 1038,2 15 0,0
23.10.2018 01:00:00 5,2 4,6 11 6 - - NNW 1038,8 18 0,0
23.10.2018 00:00:00 3,5 2,6 11 6 - - NNW 1039,4 12 0,0
22.10.2018 23:00:00 3,0 1,7 8 4 - - NNE 1040,0 20 0,0
22.10.2018 22:00:00 4,9 3,1 8 4 - - N 1040,1 26 0,0
22.10.2018 21:00:00 7,7 5,7 9 5 - - NW 1040,4 24 0,0
22.10.2018 20:00:00 6,3 4,4 11 6 - - NNW 1040,4 24 0,0
22.10.2018 19:00:00 9,2 5,7 8 4 - - N 1040,1 24 0,0
22.10.2018 18:00:00 10,5 5,5 13 7 - - N 1039,7 30 0,0
22.10.2018 17:00:00 12,3 5,9 21 11 - - N 1039,8 25 0,0
22.10.2018 16:00:00 12,0 5,7 21 11 - - N 1039,8 25 0,0
22.10.2018 15:00:00 13,2 5,8 18 10 - - NNE 1040,0 25 0,0
22.10.2018 14:00:00 13,4 5,7 24 13 - - N 1040,6 24 0,0
22.10.2018 13:00:00 12,6 5,6 16 9 - - NNE 1040,8 21 0,0
22.10.2018 12:00:00 12,2 5,6 18 10 - - NNE 1040,8 20 0,0
22.10.2018 11:00:00 11,6 6,1 8 4 - - ENE 1040,4 22 0,0
22.10.2018 10:00:00 10,2 7,0 4 2 - - ENE 1040,0 25 0,0
22.10.2018 09:00:00 6,2 5,6 13 7 - - N 1039,3 24 0,0
22.10.2018 08:00:00 2,6 1,5 11 6 - - N 1039,0 24 0,0
22.10.2018 07:00:00 4,4 2,9 8 4 - - N 1038,1 23 0,0
22.10.2018 06:00:00 5,7 4,1 11 6 - - ENE 1037,2 24 0,0
22.10.2018 05:00:00 5,0 2,7 13 7 - - NNE 1036,7 27 0,0
22.10.2018 04:00:00 6,5 4,8 15 8 - - NNE 1036,2 28 0,0
22.10.2018 03:00:00 6,3 4,1 15 8 - - NE 1035,8 28 0,0
22.10.2018 02:00:00 6,6 5,0 13 7 - - NE 1035,5 27 0,0
22.10.2018 01:00:00 7,9 6,2 16 9 - - NNE 1035,1 27 0,0
22.10.2018 00:00:00 8,4 6,8 16 9 - - NNE 1034,6 28 0,0
21.10.2018 23:00:00 7,9 5,4 2 1 - - NE 1033,9 30 0,0
21.10.2018 22:00:00 11,0 7,9 24 13 - - N 1032,8 35 0,0
21.10.2018 21:00:00 12,2 9,2 28 15 - - N 1032,3 30 0,0
21.10.2018 20:00:00 12,4 9,6 22 12 50 27 N 1031,3 35 0,0
21.10.2018 19:00:00 13,2 10,6 18 10 - - N 1030,2 35 0,0
21.10.2018 18:00:00 13,7 11,1 26 14 - - N 1029,3 35 0,0
21.10.2018 17:00:00 13,8 11,8 22 12 50 27 NNE 1028,4 40 0,0
21.10.2018 16:00:00 14,0 12,8 13 7 - - W 1028,3 13 0,0
21.10.2018 15:00:00 14,0 12,3 18 10 - - W 1028,7 15 0,0
21.10.2018 14:00:00 14,9 12,1 18 10 - - WSW 1028,7 24 0,0
21.10.2018 13:00:00 14,8 11,4 16 9 - - W 1028,8 27 0,0
21.10.2018 12:00:00 13,5 12,2 8 4 - - SW 1028,9 20 0,0
21.10.2018 11:00:00 12,0 11,7 0 0 - - N 1029,2 15 0,0
21.10.2018 10:00:00 10,0 9,8 4 2 - - ENE 1029,1 8 0,0
21.10.2018 09:00:00 5,5 5,3 8 4 - - ENE 1029,2 3,2 0,0
21.10.2018 08:00:00 4,0 3,7 8 4 - - E 1028,7 0,2 0,0
21.10.2018 07:00:00 4,5 4,2 5 3 - - ENE 1028,8 0,7 0,0
21.10.2018 06:00:00 5,9 5,6 8 4 - - ENE 1028,9 0,3 0,0
21.10.2018 05:00:00 4,9 4,6 5 3 - - ENE 1029,0 4,2 0,0
21.10.2018 04:00:00 4,6 4,2 5 3 - - ENE 1029,2 1,1 0,0
21.10.2018 03:00:00 5,5 5,1 5 3 - - E 1029,6 0,9 0,0
21.10.2018 02:00:00 6,9 6,6 8 4 - - E 1029,7 0,8 0,0
21.10.2018 01:00:00 6,8 6,2 8 4 - - E 1030,2 1,3 0,0
21.10.2018 00:00:00 6,9 6,3 8 4 - - E 1030,6 2,8 0,0
20.10.2018 23:00:00 8,5 7,8 5 3 - - E 1030,9 2,4 0,0
20.10.2018 22:00:00 8,6 7,7 5 3 - - E 1031,1 2,3 0,0
20.10.2018 21:00:00 9,0 7,2 2 1 - - E 1031,3 11 0,0
20.10.2018 20:00:00 13,0 11,1 8 4 - - W 1031,3 11 0,0
20.10.2018 19:00:00 14,2 12,3 13 7 - - W 1031,4 16 0,0
20.10.2018 18:00:00 14,6 12,2 16 9 - - WSW 1031,3 16 0,0
20.10.2018 17:00:00 15,2 12,5 18 10 - - WSW 1031,3 14 0,0
20.10.2018 16:00:00 15,7 12,8 16 9 - - WSW 1031,7 14 0,0
20.10.2018 15:00:00 15,8 12,4 21 11 - - SW 1031,7 13 0,0
20.10.2018 14:00:00 15,3 12,4 21 11 - - SW 1031,9 17 0,0
20.10.2018 13:00:00 15,6 12,4 18 10 - - SSW 1032,0 21 0,0
20.10.2018 12:00:00 15,7 12,9 18 10 - - SW 1032,3 16 0,0
20.10.2018 11:00:00 14,3 12,2 11 6 - - SSE 1032,1 21 -
20.10.2018 10:00:00 11,1 10,9 5 3 - - E 1032,0 9 0,0
20.10.2018 09:00:00 7,2 7,0 5 3 - - ENE 1031,6 3,0 0,0
20.10.2018 08:00:00 6,5 6,1 4 2 - - ESE 1031,1 2,6 0,0
20.10.2018 07:00:00 9,3 9,0 9 5 - - E 1030,7 5 0,0
20.10.2018 06:00:00 5,8 5,4 4 2 - - E 1030,4 1,5 0,0
20.10.2018 05:00:00 7,2 6,8 9 5 - - NE 1030,1 2,7 0,0
20.10.2018 04:00:00 7,0 6,7 9 5 - - NE 1030,2 1,9 0,0
20.10.2018 03:00:00 7,9 7,4 5 3 - - E 1029,7 3,7 0,0
20.10.2018 02:00:00 8,5 8,0 5 3 - - ENE 1029,4 3,4 0,0
20.10.2018 01:00:00 10,5 10,1 5 3 - - ESE 1029,2 6 0,0
20.10.2018 00:00:00 10,2 9,9 8 4 - - E 1029,3 7 0,0
19.10.2018 23:00:00 8,5 7,9 8 4 - - E 1029,1 2,1 0,0
19.10.2018 22:00:00 10,0 9,4 8 4 - - E 1028,9 6 0,0
19.10.2018 21:00:00 8,2 7,0 2 1 - - WNW 1028,2 4,5 0,0
19.10.2018 20:00:00 11,3 9,2 4 2 - - NW 1027,9 18 0,0
19.10.2018 19:00:00 13,8 11,5 15 8 - - WSW 1027,8 21 0,0
19.10.2018 18:00:00 14,0 11,4 16 9 - - SW 1027,3 15 0,0
19.10.2018 17:00:00 14,4 11,6 9 5 - - SW 1027,5 16 0,0
19.10.2018 16:00:00 14,4 11,7 16 9 - - S 1026,7 16 0,0
19.10.2018 15:00:00 14,9 11,7 18 10 - - S 1026,5 16 0,0
19.10.2018 14:00:00 14,3 11,3 16 9 - - S 1026,7 16 0,0
19.10.2018 13:00:00 14,2 11,0 13 7 - - SSE 1026,8 16 0,0
19.10.2018 12:00:00 13,6 10,0 9 5 - - ESE 1026,9 19 0,0
19.10.2018 11:00:00 12,8 9,5 8 4 - - SE 1027,1 19 0,0
19.10.2018 10:00:00 10,7 9,2 8 4 - - ENE 1026,6 13 0,0
19.10.2018 09:00:00 7,6 7,0 9 5 - - E 1026,1 8 0,0
19.10.2018 08:00:00 3,9 2,7 8 4 - - ENE 1026,0 5 0,0
19.10.2018 07:00:00 7,4 6,3 11 6 - - E 1025,9 10 0,0
19.10.2018 06:00:00 8,2 7,1 15 8 - - E 1025,5 12 0,0
19.10.2018 05:00:00 7,7 6,9 13 7 - - E 1025,9 11 0,0
19.10.2018 04:00:00 6,6 6,1 13 7 - - E 1026,2 10 0,0
19.10.2018 03:00:00 4,2 3,5 8 4 - - NNE 1026,4 5 0,0
19.10.2018 02:00:00 6,1 5,4 9 5 - - E 1026,2 8 0,0
19.10.2018 01:00:00 7,0 6,3 13 7 - - E 1026,6 9 0,0
19.10.2018 00:00:00 3,8 2,8 5 3 - - E 1027,4 14 0,0
18.10.2018 23:00:00 5,3 4,0 5 3 - - NNE 1027,1 14 0,0
18.10.2018 22:00:00 6,4 5,5 9 5 - - E 1026,8 23 0,0
18.10.2018 21:00:00 8,5 7,6 9 5 - - E 1026,7 21 0,0
18.10.2018 20:00:00 5,9 4,4 5 3 - - NE 1026,6 28 0,0
18.10.2018 19:00:00 7,3 4,9 8 4 - - SSE 1026,4 30 0,0
18.10.2018 18:00:00 12,4 7,3 5 3 - - S 1026,4 30 0,0
18.10.2018 17:00:00 14,2 7,3 5 3 - - WSW 1026,5 30 0,0
18.10.2018 16:00:00 14,2 6,3 9 5 - - WSW 1026,9 30 0,0
18.10.2018 15:00:00 14,8 6,3 8 4 - - W 1027,2 27 0,0
18.10.2018 14:00:00 15,1 7,1 5 3 - - NNE 1027,4 28 0,0
18.10.2018 13:00:00 13,6 5,9 11 6 - - NE 1028,1 35 0,0
18.10.2018 12:00:00 12,7 6,1 16 9 - - ENE 1028,4 30 0,0
18.10.2018 11:00:00 11,4 6,2 18 10 - - NE 1028,8 30 0,0
18.10.2018 10:00:00 10,1 5,9 13 7 - - NE 1028,5 35 0,0
18.10.2018 09:00:00 8,8 5,7 9 5 - - E 1028,1 35 0,0
18.10.2018 08:00:00 8,1 5,9 18 10 - - ENE 1027,8 35 0,0
18.10.2018 07:00:00 8,2 6,7 18 10 - - ENE 1027,6 30 0,0
18.10.2018 06:00:00 8,1 6,7 15 8 - - ENE 1027,1 29 0,0

tt = Température de l'air
td = dewpoint
ff = Vitesse du vent
fx = gusts
dd = Direction du vent
ppp = reduced air pressure
vv = visibility
rr = Quantités de précipitations

stations d'obs. à proximité